Flag for Australia Weather past 2 weeks in Mount Isa, Queensland, Australia

Now
48 °F

Clear.


Feels Like: 48 °F
Forecast: 56 / 84 °F
Wind: No wind

Location: Mount Isa Amo

Current Time: May 25, 2015 at 1:35:50 AM

Latest Report: May 25, 2015 at 1:00 AM


Visibility: N/A

Pressure: 30.15 "Hg

Humidity: 62%

Dew point: 36 °F

Location of Mount IsaLocation

Historic Weather in Mount Isa — Graph

°F

Mount Isa temperature yesterday

Maximum temperature yesterday: 79 °F (at 3:00 PM)
Minimum temperature yesterday: 50 °F (at 2:30 AM)
Average temperature yesterday: 65 °F

Past Weeks' High & Low Weather Summary

 TemperatureHumidityPressure
High91 °F (May 20, 3:00 PM)77% (May 19, 5:00 AM)30.30 "Hg (May 19, 5:00 AM)
Low48 °F (May 12, 6:00 AM)5% (May 14, 4:00 PM)29.95 "Hg (May 19, 3:30 PM)
Average68 °F33%30.12 "Hg
* Reported Midnight between May 9 and May 10 — May 25 12:30 AM, Mount Isa, Weather by CustomWeather, © 2015

Note: Actual official high and low records may vary slightly from our data, if they occured in-between our weather recording intervals... More about our weather records

Advertising

Mount Isa weather history for previous 24 hours

 ConditionsComfort  
Time TempWeatherWind HumidityBarometerVisibility
12:30 AM
Mon, May 25
50 °FClear.No wind58%30.15 "HgN/A
12:00 AM50 °FClear.No wind62%30.15 "Hg4 mi
11:30 PM
Sun, May 24
52 °FClear.2 mph54%30.15 "HgN/A
11:00 PM52 °FClear.No wind58%30.15 "HgN/A
10:30 PM54 °FClear.No wind51%30.15 "HgN/A
10:00 PM55 °FClear.No wind47%30.15 "HgN/A
9:30 PM57 °FClear.3 mph44%30.15 "HgN/A
9:00 PM57 °FClear.No wind44%30.12 "HgN/A
8:30 PM59 °FClear.5 mph42%30.12 "HgN/A
8:00 PM63 °FClear.5 mph39%30.12 "HgN/A
7:30 PM61 °FClear.No wind42%30.09 "HgN/A
7:00 PM63 °FClear.No wind39%30.09 "HgN/A
6:30 PM68 °FClear.5 mph35%30.09 "HgN/A
6:00 PM75 °FClear.6 mph31%30.09 "HgN/A
5:30 PM79 °FClear.6 mph21%30.07 "HgN/A
5:00 PM79 °FSunny.6 mph21%30.07 "HgN/A
4:30 PM79 °FSunny.6 mph21%30.07 "HgN/A
4:00 PM79 °FSunny.6 mph23%30.07 "HgN/A
3:30 PM79 °FSunny.7 mph20%30.07 "HgN/A
3:00 PM79 °FSunny.9 mph21%30.07 "Hg10 mi
2:30 PM77 °FSunny.7 mph21%30.07 "HgN/A
2:00 PM77 °FSunny.9 mph21%30.07 "Hg10 mi
1:30 PM77 °FSunny.14 mph19%30.07 "HgN/A
1:00 PM75 °FSunny.15 mph22%30.09 "Hg10 mi
12:30 PM77 °FSunny.14 mph21%30.09 "HgN/A
12:00 PM77 °FSunny.15 mph21%30.12 "Hg10 mi
11:30 AM75 °FSunny.12 mph24%30.12 "HgN/A
11:00 AM75 °FSunny.17 mph24%30.12 "Hg10 mi
10:30 AM72 °FSunny.16 mph27%30.15 "HgN/A
10:00 AM70 °FSunny.15 mph31%30.15 "Hg10 mi
9:30 AM68 °FSunny.13 mph33%30.15 "HgN/A
9:00 AM66 °FSunny.12 mph32%30.15 "HgN/A
8:30 AM64 °FSunny.10 mph34%30.12 "HgN/A
8:00 AM63 °FSunny.9 mph39%30.12 "Hg10 mi
7:30 AM59 °FSunny.7 mph42%30.12 "HgN/A
7:00 AM59 °FSunny.7 mph42%30.09 "Hg10 mi
6:30 AM59 °FSunny.7 mph42%30.09 "HgN/A
6:00 AM59 °FClear.7 mph42%30.09 "Hg10 mi
5:30 AM55 °FClear.6 mph47%30.09 "HgN/A
5:00 AM57 °FClear.7 mph41%30.09 "HgN/A
4:30 AM57 °FClear.7 mph39%30.09 "HgN/A
4:00 AM57 °FClear.7 mph36%30.09 "HgN/A
3:30 AM50 °FClear.7 mph50%30.09 "HgN/A
3:00 AM52 °FClear.6 mph50%30.09 "HgN/A
2:30 AM50 °FClear.7 mph47%30.12 "HgN/A
2:00 AM52 °FClear.7 mph47%30.12 "HgN/A
1:30 AM61 °FClear.5 mph36%30.12 "HgN/A
1:00 AM61 °FClear.7 mph34%30.12 "HgN/A
Weather by CustomWeather, © 2015

See weather overviewHow to use our weather pages